Latest Coastal Weather Observations for Gabo Island

IDT60701

Issued at 9:45 pm EST Thursday 31 July 2014 (issued every 10 minutes, with the page automatically refreshed every 10 minutes)

About coastal observations | Map of coastal stations | Coastal observations for TAS | Marine services | Other Formats
Station Details ID: 084016 Name: GABO ISLAND LIGHTHOUSE Lat: -37.57 Lon: 149.92 Height: 15.2 m
Data from the previous 72 hours. | See also: Recent months at Gabo Island
Date/Time
EST
Temp

°C
Wind Pressure Rain
since 9am
mm
Weather Cloud Vis
km
Sea
Height
m
Swell
Dir
 
Speed
knots
Gust
knots
hPa Trend Height
m
Period
s
Dir
31/09:30pm 12.5 SW 23 28 1000.1 - 0.0 - - - - - - -
31/09:00pm 13.0 SW 27 32 999.5 - 0.0 Fine Mostly clear 30 1 1.0 - S
31/08:30pm 13.7 SW 31 37 999.0 - 0.0 - - - - - - -
31/08:20pm 14.2 SSW 34 38 998.5 - 0.0 - - - - - - -
31/08:13pm 15.8 SW 21 31 998.7 - 0.0 - - - - - - -
31/08:00pm 17.1 N 7 9 997.8 - 0.0 - - - - - - -
31/07:30pm 18.6 NW 10 16 997.8 - 0.0 - - - - - - -
31/07:00pm 19.1 NW 10 13 997.5 - 0.0 - - - - - - -
31/06:30pm 20.0 WNW 12 17 996.9 - 0.0 - - - - - - -
31/06:00pm 21.0 NW 13 20 996.1 - 0.0 - - - - - - -
31/05:30pm 20.5 NNW 13 20 995.8 - 0.0 - - - - - - -
31/05:00pm 20.0 NNW 10 15 995.6 - 0.0 - - - - - - -
31/04:30pm 21.4 N 15 21 995.3 - 0.0 - - - - - - -
31/04:00pm 22.1 N 13 17 995.2 - 0.0 - - - - - - -
31/03:30pm 22.5 NNW 12 19 995.7 - 0.0 - - - - - - -
31/03:00pm 23.0 NNW 13 21 995.9 - 0.0 Fine Clear 30 1 1.0 - S
31/02:30pm 23.0 NNW 16 23 996.3 - 0.0 - - - - - - -
31/02:02pm 23.1 NNW 15 25 996.3 - 0.0 - - - - - - -
31/02:00pm 23.1 NNW 14 25 996.3 - 0.0 - - - - - - -
31/01:36pm 22.8 NW 15 26 996.8 - 0.0 - - - - - - -
31/01:30pm 20.9 NNE 13 22 997.0 - 0.0 - - - - - - -
31/01:24pm 19.0 NNE 17 27 997.1 - 0.0 - - - - - - -
31/01:00pm 18.5 NNE 22 27 997.4 - 0.0 - - - - - - -
31/12:30pm 18.9 NNE 21 25 998.3 - 0.0 - - - - - - -
31/12:00pm 18.9 NNE 20 26 999.5 - 0.0 - - - - - - -
31/11:30am 18.7 NNE 19 23 1000.4 - 0.0 - - - - - - -
31/11:00am 18.4 NNE 19 23 1001.4 - 0.0 - - - - - - -
31/10:30am 18.0 NNE 16 20 1002.3 - 0.0 - - - - - - -
31/10:00am 17.8 NNE 16 19 1002.9 - 0.0 - - - - - - -
31/09:30am 17.5 N 15 18 1003.4 - 0.0 - - - - - - -
31/09:00am 15.9 N 14 18 1004.1 - 0.0 Fine Mostly clear 40 1 1.0 - S
31/08:30am 15.3 N 13 17 1004.5 - 0.0 - - - - - - -
31/08:00am 15.2 N 13 18 1004.7 - 0.0 - - - - - - -
31/07:30am 13.3 NNE 12 15 1004.9 - 0.0 - - - - - - -
31/07:00am 12.9 N 12 16 1005.2 - 0.0 - - - - - - -
31/06:30am 12.9 N 11 14 1005.6 - 0.0 - - - - - - -
31/06:00am 12.9 N 9 11 1005.7 - 0.0 - - - - - - -
31/05:30am 14.6 N 10 12 1005.8 - 0.0 - - - - - - -
31/05:00am 14.9 N 10 13 1006.1 - 0.0 - - - - - - -
31/04:30am 14.6 N 10 13 1006.5 - 0.0 - - - - - - -
31/04:00am 15.5 N 9 11 1006.8 - 0.0 - - - - - - -
31/03:30am 15.8 N 8 11 1007.1 - 0.0 - - - - - - -
31/03:00am 13.0 N 10 11 1007.6 - 0.0 Fine Clear 30 1 1.0 - S
31/02:30am 14.1 N 9 11 1008.0 - 0.0 - - - - - - -
31/02:00am 16.1 N 11 13 1008.4 - 0.0 - - - - - - -
31/01:30am 15.1 N 10 13 1008.5 - 0.0 - - - - - - -
31/01:00am 14.7 N 10 13 1008.7 - 0.0 - - - - - - -
31/12:30am 14.4 N 10 13 1008.9 - 0.0 - - - - - - -
31/12:00am 14.4 N 11 13 1009.3 - 0.0 - - - - - - -
 
Date/Time
EST
Temp

°C
Wind Pressure Rain
since 9am
mm
Weather Cloud Vis
km
Sea
Height
m
Swell
Dir
 
Speed
knots
Gust
knots
hPa Trend Height
m
Period
s
Dir
30/11:30pm 13.6 N 10 14 1009.5 - 0.0 - - - - - - -
30/11:00pm 13.5 N 10 11 1009.6 - 0.0 - - - - - - -
30/10:30pm 13.7 N 10 11 1009.6 - 0.0 - - - - - - -
30/10:00pm 14.4 N 10 12 1009.7 - 0.0 - - - - - - -
30/09:30pm 14.4 N 9 11 1009.7 - 0.0 - - - - - - -
30/09:00pm 15.1 N 8 9 1010.0 - 0.0 Fine Clear 30 1 1.0 - S
30/08:30pm 14.9 N 8 9 1010.0 - 0.0 - - - - - - -
30/08:00pm 15.9 N 8 11 1010.2 - 0.0 - - - - - - -
30/07:30pm 15.9 N 8 9 1010.2 - 0.0 - - - - - - -
30/07:00pm 15.2 N 8 10 1009.9 - 0.0 - - - - - - -
30/06:30pm 15.0 NW 7 9 1009.7 - 0.0 - - - - - - -
30/06:00pm 14.7 NW 7 9 1009.5 - 0.0 - - - - - - -
30/05:30pm 15.4 WNW 7 8 1009.4 - 0.0 - - - - - - -
30/05:00pm 15.8 NNW 6 6 1009.3 - 0.0 - - - - - - -
30/04:30pm 16.0 NNE 5 6 1009.0 - 0.0 - - - - - - -
30/04:00pm 16.7 NE 5 6 1009.0 - 0.0 - - - - - - -
30/03:30pm 16.6 ENE 8 9 1009.2 - 0.0 - - - - - - -
30/03:00pm 16.4 E 5 7 1009.5 - 0.0 Fine Partly cloudy 30 1 1.0 - S
30/02:30pm 16.5 ESE 6 8 1009.6 - 0.0 - - - - - - -
30/02:00pm 17.0 SE 8 11 1009.7 - 0.0 - - - - - - -
30/01:30pm 17.5 SE 7 11 1009.7 - 0.0 - - - - - - -
30/01:00pm 17.6 SSE 8 10 1009.9 - 0.0 - - - - - - -
30/12:30pm 18.1 ESE 5 8 1010.4 - 0.0 - - - - - - -
30/12:00pm 17.5 E 5 6 1010.5 - 0.0 - - - - - - -
30/11:30am 17.5 NE 5 6 1010.8 - 0.0 - - - - - - -
30/11:00am 17.1 NE 6 7 1011.2 - 0.0 - - - - - - -
30/10:30am 17.2 ENE 4 5 1011.6 - 0.0 - - - - - - -
30/10:00am 16.8 SSE 3 5 1011.8 - 0.0 - - - - - - -
30/09:30am 16.4 S 3 3 1011.8 - 0.0 - - - - - - -
30/09:00am 15.8 WSW 3 5 1012.1 - 0.0 Fine Partly cloudy 30 1 1.0 - S
30/08:30am 14.7 W 3 6 1011.9 - 0.0 - - - - - - -
30/08:00am 15.1 WSW 6 10 1011.9 - 0.0 - - - - - - -
30/07:30am 15.2 SSW 9 11 1011.5 - 0.0 - - - - - - -
30/07:00am 15.1 SSE 4 5 1011.1 - 0.0 - - - - - - -
30/06:30am 15.6 NNE 2 3 1010.5 - 0.0 - - - - - - -
30/06:00am 15.8 NNW 6 7 1010.1 - 0.0 - - - - - - -
30/05:30am 16.1 NW 7 9 1009.9 - 0.0 - - - - - - -
30/05:00am 15.3 NW 2 6 1009.6 - 0.0 - - - - - - -
30/04:30am 14.3 N 6 7 1009.2 - 0.0 - - - - - - -
30/04:00am 14.1 NNE 7 8 1009.0 - 0.0 - - - - - - -
30/03:30am 15.2 N 6 8 1008.8 - 0.0 - - - - - - -
30/03:00am 15.1 N 7 10 1008.7 - 0.0 Fine Mostly clear 30 1 - - -
30/02:30am 15.3 N 7 10 1008.6 - 0.0 - - - - - - -
30/02:00am 15.7 NNW 9 12 1008.4 - 0.0 - - - - - - -
30/01:30am 15.9 NNW 9 14 1008.3 - 0.0 - - - - - - -
30/01:00am 15.9 NNW 10 15 1008.2 - 0.0 - - - - - - -
30/12:30am 15.9 NNW 10 14 1008.2 - 0.0 - - - - - - -
30/12:00am 16.2 NNW 9 13 1008.2 - 0.0 - - - - - - -
 
Date/Time
EST
Temp

°C
Wind Pressure Rain
since 9am
mm
Weather Cloud Vis
km
Sea
Height
m
Swell
Dir
 
Speed
knots
Gust
knots
hPa Trend Height
m
Period
s
Dir
29/11:30pm 15.8 NNW 8 11 1008.2 - 0.0 - - - - - - -
29/11:00pm 16.1 NNW 10 13 1008.2 - 0.0 - - - - - - -
29/10:30pm 16.1 NNW 9 12 1008.0 - 0.0 - - - - - - -
29/10:00pm 16.3 NNW 10 14 1008.1 - 0.0 - - - - - - -
29/09:30pm 16.6 NW 11 16 1008.5 - 0.0 - - - - - - -
29/09:00pm 16.9 NNW 11 16 1007.9 - 0.0 Fine Clear 30 <0.5 2.0 - SE
29/08:30pm 16.6 NNW 9 14 1007.8 - 0.0 - - - - - - -
29/08:00pm 16.5 N 9 12 1007.7 - 0.0 - - - - - - -
29/07:30pm 15.6 N 8 12 1007.7 - 0.0 - - - - - - -
29/07:00pm 15.9 NNW 8 10 1007.7 - 0.0 - - - - - - -
29/06:30pm 16.4 N 7 11 1007.7 - 0.0 - - - - - - -
29/06:00pm 16.6 NNW 8 11 1007.2 - 0.0 - - - - - - -
29/05:30pm 16.9 NNW 8 13 1007.2 - 0.0 - - - - - - -
29/05:00pm 17.4 NNW 10 13 1006.9 - 0.0 - - - - - - -
29/04:30pm 17.6 NNW 9 14 1006.9 - 0.0 - - - - - - -
29/04:00pm 18.2 NNW 8 14 1006.5 - 0.0 - - - - - - -
29/03:30pm 18.8 NNW 11 16 1006.6 - 0.0 - - - - - - -
29/03:00pm 20.0 NW 11 16 1006.5 - 0.0 Fine Mostly cloudy 40 <0.5 2.0 - SE
29/02:30pm 20.1 NW 10 15 1006.3 - 0.0 - - - - - - -
29/02:00pm 21.1 NNW 9 14 1006.6 - 0.0 - - - - - - -
29/01:30pm 21.8 NW 9 13 1007.0 - 0.0 - - - - - - -
29/01:00pm 21.7 NNW 9 13 1006.9 - 0.0 - - - - - - -
29/12:30pm 21.1 NNW 8 11 1007.3 - 0.0 - - - - - - -
29/12:00pm 18.2 NNE 10 13 1007.8 - 0.0 - - - - - - -
29/11:30am 20.0 N 7 11 1008.6 - 0.0 - - - - - - -
29/11:00am 16.8 NNE 8 11 1009.5 - 0.0 - - - - - - -
29/10:30am 16.6 NNE 9 13 1009.7 - 0.0 - - - - - - -
29/10:00am 15.9 NNE 11 13 1009.8 - 0.0 - - - - - - -
29/09:30am 15.8 NNE 10 15 1009.6 - 0.0 - - - - - - -
29/09:00am 18.0 N 12 19 1009.7 - 0.0 Fine Mostly cloudy 50 <0.5 2.0 - SE
29/08:30am 17.3 N 9 13 1010.1 - 0.0 - - - - - - -
29/08:00am 14.4 N 10 14 1009.9 - 0.0 - - - - - - -
29/07:30am 14.2 N 12 15 1010.3 - 0.0 - - - - - - -
29/07:00am 12.3 N 9 11 1010.6 - 0.0 - - - - - - -
29/06:30am 12.3 N 11 13 1010.4 - 0.0 - - - - - - -
29/06:00am 11.8 N 12 14 1010.3 - 0.0 - - - - - - -
29/05:30am 12.0 N 12 14 1010.3 - 0.0 - - - - - - -
29/05:00am 12.2 N 11 13 1010.3 - 0.0 - - - - - - -
29/04:30am 12.5 N 12 14 1010.4 - 0.0 - - - - - - -
29/04:00am 12.6 N 10 14 1010.8 - 0.0 - - - - - - -
29/03:30am 12.3 N 11 13 1011.1 - 0.0 - - - - - - -
29/03:00am 12.2 N 11 13 1011.4 - 0.0 Fine Clear 30 <0.5 2.0 - S
29/02:30am 12.2 N 11 13 1011.6 - 0.0 - - - - - - -
29/02:00am 11.5 N 9 11 1012.0 - 0.0 - - - - - - -
29/01:30am 11.9 N 7 8 1012.2 - 0.0 - - - - - - -
29/01:00am 12.3 N 8 9 1012.4 - 0.0 - - - - - - -
29/12:30am 12.6 N 6 8 1012.7 - 0.0 - - - - - - -
29/12:00am 13.1 N 5 8 1012.8 - 0.0 - - - - - - -
 
Date/Time
EST
Temp

°C
Wind Pressure Rain
since 9am
mm
Weather Cloud Vis
km
Sea
Height
m
Swell
Dir
 
Speed
knots
Gust
knots
hPa Trend Height
m
Period
s
Dir
28/11:30pm 14.1 NNE 9 11 1012.9 - 0.0 - - - - - - -
28/11:00pm 14.1 NNE 11 14 1012.9 - 0.0 - - - - - - -
28/10:30pm 13.5 NNE 11 13 1013.1 - 0.0 - - - - - - -
28/10:00pm 14.6 NNE 11 13 1013.3 - 0.0 - - - - - - -

Other Formats:

Comma delimited format used in spreadsheet applications
http://www.bom.gov.au/fwo/IDT60701/IDT60701.94933.axf

JavaScript Object Notation format (JSON) in row-major order
http://www.bom.gov.au/fwo/IDT60701/IDT60701.94933.json